Tracking 20241 objects as of 26-Jan-2020
HD Live streaming from Space Station
objects crossing your sky now

COSMOS 2251 DEB

Track COSMOS 2251 DEB now!
10-day predictions


NORAD ID: 33993
Int'l Code: 1993-036GC
Perigee: 665.8 km
Apogee: 710.1 km
Inclination: 74.0 °
Period: 98.4 minutes
Semi major axis: 7058 km
RCS: 0.021 m2 (small)
Launch date: June 16, 1993
Source: Commonwealth of Independent States (former USSR) (CIS)
Launch site: PLESETSK MISSILE AND SPACE COMPLEX (PKMTR)

Note: This is SATELLITE DEBRIS
aabbcc
Your satellite tracking list
Your tracking list is empty




NASA's NSSDC Master Catalog

Two Line Element Set (TLE):
1 33993U 93036GC  20025.42967031 +.00000948 +00000-0 +18629-3 0  9999
2 33993 074.0196 030.1099 0031329 325.3803 034.5324 14.63836516580478
Source of the keplerian elements: AFSPC